Hourly Data Report for October 11, 2015

All times are specified in Local Standard Time (LST). Add 1 hour to adjust for Daylight Saving Time where and when it is observed.

PANGNIRTUNG
NUNAVUT

66°08'36.300" N
65°42'40.500" W
22.60 m
2403049
71826
WXP

Download Data

Hourly Data (October 2015)
Hourly Data Report for October 11, 2015
Temp Definition
°C
Dew Point Temp Definition
°C
Rel Hum Definition
%
Wind Dir Definition
10's deg

Wind Spd Definition
km/h
Visibility Definition
km
Stn Press Definition
kPa
Hmdx Definition


Wind Chill Definition


Weather Definition


TIME
00:00 0.0 -5.9 65 8 12   99.70   -4 LegendNANA
01:00 0.5 -4.8 68 11 10   99.70     LegendNANA
02:00 0.7 -4.7 67 2 12   99.72     LegendNANA
03:00 0.9 -4.4 68 5 9   99.71     LegendNANA
04:00 0.5 -4.8 68 6 15   99.69     LegendNANA
05:00 0.3 -5.1 67 7 15   99.70     LegendNANA
06:00 0.0 -5.5 67 8 17   99.69   -5 LegendNANA
07:00 0.0 -5.6 66 7 13   99.68   -4 LegendNANA
08:00 0.5 -5.4 65 8 5   99.65     LegendNANA
09:00 0.6 -5.4 64 7 5   99.60     LegendNANA
10:00 0.4 -5.5 65 7 4   99.57     LegendNANA
11:00 1.1 -5.6 61 14 6   99.53     LegendNANA
12:00 0.5 -5.8 62 7 11   99.49     LegendNANA
13:00 -0.1 -5.7 66 9 12   99.44   -4 LegendNANA
14:00 0.8 -5.7 62 7 8   99.40     LegendNANA
15:00 0.9 -5.9 60 10 5   99.37     LegendNANA
16:00 0.4 -5.5 65 16 3   99.37     LegendNANA
17:00 0.4 -5.1 66 13 2   99.35     LegendNANA
18:00 -0.3 -5.7 67 19 2   99.33   -1 LegendNANA
19:00 -1.0 -6.2 68 10 3   99.30   -2 LegendNANA
20:00 -0.5 -6.2 66 8 2   99.27   -1 LegendNANA
21:00 -1.3 -6.8 66 31 2   99.20   -2 LegendNANA
22:00 -2.3 -7.4 68 11 6   99.18   -5 LegendNANA
23:00 -2.9 -7.8 69 22 2   99.13   -4 LegendNANA

Notes on Data Quality.

Legend

  • E = Estimated
  • M = Missing
  • NA = Not Available
  • ‡ = Partner data that is not subject to review by the National Climate Archives
Date modified: